Regional Weather Roundup
Issued by NWS Sterling, VA

Home | Current Version | Previous Version | Text Only | Print | Product List | Glossary On
Versions: 1 2 3 4 5 6 7 8 9 10 11 12 13 14 15 16 17 18 19 20 21 22 23 24 25 26 27
000
ASUS41 KLWX 271111
RWRLWX

REGIONAL WEATHER ROUNDUP
NATIONAL WEATHER SERVICE BALTIMORE MD/WASHINGTON DC
700 AM EDT WED JUL 27 2016

Note: "FAIR" indicates few or no clouds below 12,000 feet
with no significant weather and/or obstructions to visibility.
 TC=TEMPERATURE CELSIUS

 * =Non NWS site. Station does not report precipitation (e.g. rain,
    snow, etc.), thunder, or fog.

DCZ001-MDZ009-015-VAZ040>042-051-053>054-271200-
WASHINGTON METRO

CITY           SKY/WX    TMP DP  RH WIND       PRES   REMARKS
WASHINGTON NAT MOCLDY    81  73  76 N7        29.95R
DULLES         MOCLDY    79  71  76 NW6       29.96R
ANDREWS AFB    PTCLDY    75  73  92 CALM      29.94S
FT BELVOIR     FAIR      74  72  93 CALM      29.94S
QUANTICO       FAIR      77  73  87 NW7       29.95R
COLLEGE PARK*  FAIR      77  72  83 CALM      29.94S
LEESBURG*      FAIR      79  72  78 N3        29.98S
MANASSAS*      CLEAR     73  73 100 CALM      29.95R
GAITHERSBURG*  CLOUDY    73  70  88 CALM      30.00S

$$

MDZ006>007-011-014-271200-
BALTIMORE METRO

CITY           SKY/WX    TMP DP  RH WIND       PRES   REMARKS
BWI AIRPORT    CLOUDY    79  67  66 VRB5      29.94R
MD SCIENCE CTR   N/A     83  64  52 MISG      29.94R
MARTIN STATE   MOCLDY    79  72  78 W5        29.95R
ANNAPOLIS      CLOUDY    80  72  76 W3        29.93R
FORT MEADE*    CLOUDY    72  72 100 CALM      29.96F

$$

MDZ012-015-019>023-271200-
MARYLAND EASTERN SHORE

CITY           SKY/WX    TMP DP  RH WIND       PRES   REMARKS
OCEAN CITY     CLOUDY   N/A N/A N/A SW3       29.93R
SALISBURY      CLOUDY    78  77  96 CALM      29.93S FOG
BAY BRIDGE AP* CLOUDY    81  73  78 N5        29.93S
CAMBRIDGE*     CLOUDY    77  77 100 CALM      29.93S

$$

MDZ017>025-271200-
SOUTHERN MARYLAND

CITY           SKY/WX    TMP DP  RH WIND       PRES   REMARKS
PATUXENT RIVER CLOUDY    79  75  87 W5        29.93R
ST INIGOES     CLOUDY    80  77  90 MISG      29.93R
LEONARDTOWN*     N/A     77  73  88 MISG        N/A

$$

MDZ003>005-271200-
NORTH CENTRAL MARYLAND

CITY           SKY/WX    TMP DP  RH WIND       PRES   REMARKS
FREDERICK*     CLEAR     73  73 100 CALM      29.99S
HAGERSTOWN APT CLOUDY    77  69  76 N3        29.98S

$$

MDZ501>502-271200-
WESTERN MARYLAND

CITY           SKY/WX    TMP DP  RH WIND       PRES   REMARKS
OAKLAND*       FOG       66  66 100 CALM      30.12S VSB 3/4
CUMBERLAND*    CLOUDY    73  66  78 NE5       30.05S

$$

VAZ025>031-271200-
SHENANDOAH VALLEY

CITY           SKY/WX    TMP DP  RH WIND       PRES   REMARKS
WINCHESTER*    FAIR      75  72  88 CALM      30.00R
FRONT ROYAL*   FAIR      72  72 100 CALM      29.99S
LURAY*         FOG      N/A N/A N/A CALM      30.01S VSB 1
NEW MARKET*    CLOUDY   N/A N/A N/A CALM      30.00S
STAUNTON*      FOG       70  70 100 CALM      30.04S VSB<1/4
WAYNESBORO*    FAIR      69  68  96 MISG      30.03S

$$

WVZ021-048>050-054>055-271200-
EASTERN WEST VIRGINIA PANHANDLE

CITY           SKY/WX    TMP DP  RH WIND       PRES   REMARKS
MARTINSBURG    FAIR      74  68  81 CALM      29.98R
PETERSBURG*    FAIR      71  70  96 CALM      30.02S FOG

$$

VAZ036>039-050-271200-
CENTRAL FOOTHILLS

CITY           SKY/WX    TMP DP  RH WIND       PRES   REMARKS
CHARLOTTESVILL FAIR      76  73  91 CALM      29.97R
CULPEPER*      FAIR      74  74 100 CALM      29.97S FOG
ORANGE*          N/A     73  73 100 CALM      29.99R
GORDONSVILLE*  FAIR      73  72  96 CALM      29.97R
WARRENTON*       N/A     73  68  86 CALM      29.96R HAZE

$$

VAZ055>057-271200-
NORTH AND CENTRAL PIEDMONT

CITY           SKY/WX    TMP DP  RH WIND       PRES   REMARKS
FREDERICKSBRG* FAIR      74  74 100 CALM      29.94S
STAFFORD*      FAIR      72  71  95 CALM      29.99R

$$

NCZ024-NYZ072-PAZ021-071-VAZ022-071-271200-
OTHER REGIONAL OBSERVATIONS

CITY           SKY/WX    TMP DP  RH WIND       PRES   REMARKS
NEW YORK CITY  CLOUDY    77  62  59 NE5       29.98R
PHILADELPHIA   CLOUDY    78  64  61 NE8       29.95S
PITTSBURGH     CLOUDY    71  62  73 NE5       30.03R
ROANOKE        FAIR      74  72  93 NE5       30.04R
RICHMOND       FAIR      73  72  96 CALM      29.94F
RALEIGH        MOCLDY    76  75  97 CALM      29.98R

$$

ANZ530>537-271200-
MARINE OBSERVATIONS

STATION/POSITION TIME  TEMP    WIND        PRES
                       AIR SEA DIR/SP/G
                 (UTC) (F)     (DEG/KT/KT) (MB)
THOMAS PT LIGHT  1100   81 84  320/  6/  8 1015.0R
BALT KEY BRIDGE  1048   82     360/  6/  7 1013.7R
COVE POINT       1048   80     330/  5/  6 1014.0R
LEWISETTA        1048   77 87  280/  3/  4 1013.3R
SOLOMONS ISLAND  1048   80 86  300/  3/  5   N/A
PINEY POINT      1048          300/  2/  3   N/A

$$





USA.gov is the U.S. government's official web portal to all federal, state and local government web resources and services.